Regional Weather Roundup
Issued by NWS

Home | Current Version | Previous Version | Text Only | Print | Product List | Glossary On
Versions: 1 2 3 4 5 6 7 8 9 10 11 12 13 14 15 16 17 18 19 20 21 22 23 24 25 26 27
000
ASUS42 KTBW 280617
RWRFL
FLORIDA REGIONAL WEATHER ROUNDUP
NATIONAL WEATHER SERVICE TAMPA BAY RUSKIN FL
200 AM EDT SUN MAY 28 2017

NOTE: "FAIR" INDICATES FEW OR NO CLOUDS BELOW 12,000 FEET WITH NO
SIGNIFICANT WEATHER AND/OR OBSTRUCTIONS TO VISIBILITY.

FLZ001>010-012>015-112-114-115-280700-
PANHANDLE FLORIDA

CITY           SKY/WX    TMP DP  RH WIND       PRES   REMARKS
PENSACOLA      CLOUDY    80  74  81 SW12      29.95F
PENSACOLA NAS  CLOUDY    78  75  90 SW12      29.94F
MILTON NAS     MOCLDY    74  74 100 SW3       29.96
CRESTVIEW      MOCLDY    75  73  93 S5        29.97S
DUKE FIELD     CLOUDY    75  73  94 SW8       29.95F
VALPARAISO     CLOUDY    78  75  90 SW8       29.95F
MARY ESTHER    MOCLDY    77  77  99 S7        29.94F
TRI COUNTY     CLOUDY    74  74 100 SW5       29.97
PANAMA CITY    MOCLDY    76  74  93 S5        29.96F
TYNDALL AFB    PTCLDY    78  75  91 SW12      29.96F
APALACHICOLA   MOCLDY    78  77  96 SW8       29.97F

STATION/POSITION SKY/WX   TEMP    WIND        PRES    WAVE   SWELL
                          AIR SEA DIR/SP/G            HT/PER HT/PER
                          (F)     (DEG/KT/KT) (MB)    (FT/S) (FT/S)
30.1N   87.6W              78 78  190/ 16/ 19 1013.6F   2/ 4   2/ 8
29.2N   88.2W              79     180/ 16/ 19 1014.5F   2/ 4   2/ 9
28.8N   86.0W              78 78  190/ 14/ 16 1015.8    2/ 8   2/ 8
PANAMA CITY BEAC           78 80  220/ 13/ 15 1014.9F
TOWER C                    77     240/ 12/ 13 1016.0F
28.5N   84.5W              77 77  220/ 12/ 14 1015.8F   1/ 6

$$
FLZ011-016>038-118-127-128-134-139-239-280700-
NORTH FLORIDA

CITY           SKY/WX    TMP DP  RH WIND       PRES   REMARKS
MARIANNA       CLEAR     74  73  97 SW6       29.96S
TALLAHASSEE    CLOUDY    74  72  93 CALM      29.98S FOG
PERRY          FOG       73  72  96 CALM      30.00S VSB 1/2
CROSS CITY     CLEAR     70  70 100 SW3       29.99F
LAKE CITY      FAIR      68  68 100 CALM      30.00S
GAINESVILLE    CLEAR     68  66  93 W5        30.00S
WILLISTON      MOCLDY    68  66  94 CALM      30.00F
PALATKA        FAIR      66  64  94 CALM      30.01S
MAYPORT NAS    CLEAR     73  67  81 SW6       29.97F
JACKSONVILLE   PTCLDY    74  61  63 SW6       29.97F
JAX NAS        CLEAR     74  63  68 SW9       29.98F
FERNANDINA BEA FAIR      73  64  73 SW7       29.96F
ST AUGUSTINE   CLEAR     71  63  75 W7        30.00F
PALM COAST     FAIR      68  64  87 W3        30.00S

STATION/POSITION SKY/WX   TEMP    WIND        PRES    WAVE   SWELL
                          AIR SEA DIR/SP/G            HT/PER HT/PER
                          (F)     (DEG/KT/KT) (MB)    (FT/S) (FT/S)
SHELL POINT      NOT AVBL
KEATON BEACH               77     260/ 11/ 12 1015.0F
CEDAR KEY                  77     250/  7/  9 1016.4F
FERNANDINA                 76 79  220/  2/  4 1015.5F
30.7N   81.3W                 79                N/A     2/ 4
MAYPORT                    74 79  220/  5/  7 1015.4F
31.4N   80.9W              78 78  210/ 14/ 16 1014.1F   3/ 4   2/ 8
ST AUGUSTINE               71 78  250/  6/  7 1016.3F

$$
FLZ040-043>046-052-053-057-058-063-144-280700-
INTERIOR CENTRAL FLORIDA

CITY           SKY/WX    TMP DP  RH WIND       PRES   REMARKS
OCALA          CLEAR     64  62  93 CALM      30.01F
THE VILLAGES     N/A     68  64  88 CALM      29.90F
LEESBURG       CLEAR     69  67  93 CALM      30.01F
SANFORD        CLEAR     71  60  68 W5        30.00F
ORLANDO EXEC   CLEAR     72  64  76 W6        30.00F
ORLANDO INTL   CLEAR     68  63  84 W5        30.01S
KISSIMMEE      CLEAR     69  61  75 CALM      30.01F
WINTER HAVEN   CLEAR     69  62  78 W6        30.01F
LAKELAND       CLEAR     63  59  88 CALM      30.01S
BARTOW         FAIR      66  61  82 W3        30.00F
OKEECHOBEE     PTCLDY    64  59  82 CALM      30.01F

$$
FLZ041-047-054-059-064-141-147-280700-
EAST CENTRAL FLORIDA

CITY           SKY/WX    TMP DP  RH WIND       PRES   REMARKS
DAYTONA BEACH  CLEAR     68  64  87 SW5       30.00F
DELAND         CLEAR     68  61  77 W3        29.99F
JFK SPACE CTR  PTCLDY    72  72 100 N3        29.98F
CAPE CANAVERAL FOG       74  72  93 CALM      29.97F VSB 1/4
PATRICK AFB    CLEAR     75  65  72 NW10      29.98F
MELBOURNE      CLEAR     68  59  73 W7        29.98F
VERO BEACH     CLEAR     72  68  87 W5        29.99F
FT PIERCE      CLEAR     72  70  93 W3        29.99S
STUART         CLEAR     77  77 100 W6        30.00F

STATION/POSITION SKY/WX   TEMP    WIND        PRES    WAVE   SWELL
                          AIR SEA DIR/SP/G            HT/PER HT/PER
                          (F)     (DEG/KT/KT) (MB)    (FT/S) (FT/S)
28.5N   80.2W              78 77  180/  6/  8 1016.5F   2/ 7   2/ 7
28.9N   78.5W              79 79  170/ 12/ 14 1015.8F   2/ 8   2/ 8
TRIDENT PIER               76 79  240/  2/  2 1017.0F
28.4N   80.5W                 76                N/A     1/ 9
27.5N   80.2W                 80                N/A     1/ 8

$$
FLZ050-056-061-142-242-148-248-149-249-151-251-155-255-
160-260-280700-
WEST CENTRAL FLORIDA

CITY           SKY/WX    TMP DP  RH WIND       PRES   REMARKS
CRYSTAL RIVER  FAIR      63  61  94 CALM      30.00F
INVERNESS      FAIR      63  63 100 CALM      30.01F
BROOKSVILLE    CLEAR     63  62  97 CALM      30.01F
CLEARWATER AIR FAIR      72  70  94 CALM      30.00F
ST PETE CLEARW CLEAR     73  68  84 W3        30.01F
TAMPA INTL     CLEAR     77  70  79 W9        30.01F
TAMPA EXEC     CLEAR     64  61  88 CALM      30.01F
PLANT CITY     CLEAR     70  64  83 W5        30.03F
MACDILL AFB    CLEAR     74  71  92 NW5       30.00F
PETER O KNIGHT PTCLDY    77  72  83 W3        30.01F
ST PETERSBURG  CLEAR     79  71  76 W7        29.99F
SARASOTA       CLEAR     77  70  79 W8        29.99F
VENICE         FAIR      77  70  78 W7        30.01F

STATION/POSITION SKY/WX   TEMP    WIND        PRES    WAVE   SWELL
                          AIR SEA DIR/SP/G            HT/PER HT/PER
                          (F)     (DEG/KT/KT) (MB)    (FT/S) (FT/S)
27.3N   84.2W                 79                N/A     1/ 7
CLEARWATER BEACH           78 82  250/  9/ 10 1016.3F
MIDDLE TAMPA BAY           78     280/  9/ 11 1016.4F
VENICE                     79 82  270/  7/  8 1015.7F

$$
FLZ066-069-070-075>078-162-262-165-265-280700-
SOUTHWEST FLORIDA AND KEYS

CITY           SKY/WX    TMP DP  RH WIND       PRES   REMARKS
PUNTA GORDA      N/A     74  67  78 W6        30.02F
FT MYERS       CLEAR     76  69  79 NW3       30.00F
SOUTHWEST INTL CLEAR     73  66  78 CALM      30.00F
NAPLES         CLEAR     78  68  71 CALM      30.00F
MARCO ISLAND   CLEAR     75  72  88 CALM      30.01F
IMMOKALEE      FAIR      68  66  94 CALM      30.02F
MARATHON       CLEAR     85  75  72 N6        30.00F
KEY WEST NAS   CLEAR     82  77  84 N7        30.01F
KEY WEST INTL  CLEAR     82  76  81 N7        30.01F

STATION/POSITION SKY/WX   TEMP    WIND        PRES    WAVE   SWELL
                          AIR SEA DIR/SP/G            HT/PER HT/PER
                          (F)     (DEG/KT/KT) (MB)    (FT/S) (FT/S)
NAPLES                        85  320/ 12/ 13 1016.0F
DRY TORTUGAS               81      70/  9/ 10 1016.1F
SAND KEY                   83      40/ 10/ 11 1016.8F
LONG KEY                   84 88  320/  7/  8 1016.1F
MOLASSES REEF              84 82  320/  4/  4 1016.5F

$$
FLZ067-068-071>074-168-172>174-280700-
SOUTHEAST FLORIDA

CITY           SKY/WX    TMP DP  RH WIND       PRES   REMARKS
W PALM BEACH   PTCLDY    80  73  79 SW6       29.99F
FT LAUDER-EXEC MOCLDY    85  69  58 NW7       29.99F
FT LAUDERDALE  PTCLDY    83  77  82 W6        29.98F
POMPANO BEACH  MOCLDY    83  75  77 NW9       29.99F
PEMBROKE PINES PTCLDY    81  72  74 NW8       30.01F
OPA LOCKA      CLEAR     81  72  74 NW9       30.00F
MIAMI          PTCLDY    82  71  69 VRB6      30.00F
WEST KENDALL     N/A    N/A N/A N/A MISG      30.00F
HOMESTEAD      CLEAR     78  74  89 W6        29.99F

STATION/POSITION SKY/WX   TEMP    WIND        PRES    WAVE   SWELL
                          AIR SEA DIR/SP/G            HT/PER HT/PER
                          (F)     (DEG/KT/KT) (MB)    (FT/S) (FT/S)
PORT EVERGLADES            83     240/  3/  6 1015.6F
VIRGINIA KEY                      290/  3/  5   N/A
LAKE WORTH                 82 82              1016.4F
FOWEY ROCKS                81 82  280/  9/ 10 1016.3F
SETTLEMENT POINT           81     170/  6/  9 1015.7F

$$





USA.gov is the U.S. government's official web portal to all federal, state and local government web resources and services.